TRA22B EHAM-LCLK

Flight info

Callsign TRA22B
Flight time 3h 51m
Altitude 33000
Route EDUPO Z739 MISGO DCT DOJOH DCT DODEN DCT NEGIX DCT DINKU DCT BESNI DCT GOMIG DCT NEMAL DCT OBUTI DCT RAVAK DCT NISVA N131 RODIP UN131 KULAR UT39 TOMBI DCT DASNI DCT BONEK
Aircraft B738/M-SDE2E3FGHIRWXY/LB1

Departure

Time 2026-05-04 06:15
Airport Amsterdam Airport Schiphol (EHAM)

Arrival

Time 2026-05-04 10:06
Airport Larnaca International Airport (LCLK)
Time Latitude Longitude Altitude Speed Heading
2026-05-04 05:56 52.30787 4.77293 -2 ft 0 kts 183°
2026-05-04 06:09 52.30800 4.77294 -2 ft 4 kts 192°
2026-05-04 06:09 52.30823 4.77306 -2 ft 4 kts 172°
2026-05-04 06:11 52.30839 4.77268 -2 ft 0 kts 109°
2026-05-04 06:13 52.30702 4.77461 -2 ft 13 kts 183°
2026-05-04 06:14 52.29939 4.76404 -4 ft 118 kts 237°
2026-05-04 06:14 52.29424 4.75061 -3 ft 159 kts 237°
2026-05-04 06:15 52.28812 4.73497 402 ft 164 kts 237°
2026-05-04 06:15 52.28198 4.71854 841 ft 172 kts 239°
2026-05-04 06:15 52.27588 4.70196 1438 ft 170 kts 239°
2026-05-04 06:15 52.26782 4.68630 1709 ft 192 kts 216°
2026-05-04 06:16 52.25543 4.67778 1918 ft 213 kts 188°
2026-05-04 06:16 52.24065 4.68086 2186 ft 225 kts 154°
2026-05-04 06:16 52.22921 4.69827 2591 ft 231 kts 120°
2026-05-04 06:16 52.22197 4.72182 3101 ft 234 kts 117°
2026-05-04 06:17 52.21450 4.74570 3613 ft 238 kts 118°
2026-05-04 06:17 52.20678 4.76971 4266 ft 240 kts 118°
2026-05-04 06:17 52.19832 4.79450 4519 ft 262 kts 120°
2026-05-04 06:17 52.18898 4.82074 4980 ft 272 kts 121°
2026-05-04 06:18 52.17939 4.84766 5612 ft 276 kts 117°
2026-05-04 06:18 52.17457 4.87796 6234 ft 281 kts 89°
2026-05-04 06:18 52.17802 4.90926 6869 ft 283 kts 73°
2026-05-04 06:20 52.21929 5.12392 10358 ft 328 kts 73°
2026-05-04 06:20 52.22613 5.16044 10517 ft 346 kts 73°
2026-05-04 06:21 52.21956 5.31662 12327 ft 366 kts 127°
2026-05-04 06:21 52.20468 5.35052 12918 ft 369 kts 129°
2026-05-04 06:22 52.18956 5.38414 13529 ft 373 kts 129°
2026-05-04 06:22 52.17423 5.41842 14103 ft 376 kts 129°
2026-05-04 06:25 51.95510 5.87483 21051 ft 411 kts 136°
2026-05-04 06:25 51.93630 5.90986 21510 ft 414 kts 136°
2026-05-04 06:26 51.91728 5.94524 21935 ft 417 kts 137°
2026-05-04 06:26 51.89816 5.98078 22370 ft 419 kts 137°
2026-05-04 06:26 51.87894 6.01644 22826 ft 421 kts 137°
2026-05-04 06:26 51.85957 6.05232 23269 ft 424 kts 137°
2026-05-04 06:27 51.78093 6.19633 24716 ft 433 kts 137°
2026-05-04 06:28 51.76090 6.23288 25058 ft 435 kts 137°
2026-05-04 06:28 51.74075 6.26965 25366 ft 438 kts 137°
2026-05-04 06:28 51.72046 6.30668 25678 ft 440 kts 137°
2026-05-04 06:28 51.70014 6.34374 25983 ft 442 kts 137°
2026-05-04 06:29 51.67972 6.38096 26275 ft 445 kts 137°
2026-05-04 06:29 51.65905 6.41856 26584 ft 447 kts 137°
2026-05-04 06:29 51.63859 6.45569 26866 ft 450 kts 137°
2026-05-04 06:29 51.61775 6.49342 27157 ft 452 kts 137°
2026-05-04 06:30 51.59675 6.53139 27435 ft 454 kts 137°
2026-05-04 06:30 51.57569 6.56942 27707 ft 456 kts 137°
2026-05-04 06:30 51.55448 6.60769 27993 ft 458 kts 137°
2026-05-04 06:30 51.53319 6.64605 28267 ft 460 kts 137°
2026-05-04 06:31 51.51207 6.68408 28528 ft 462 kts 137°
2026-05-04 06:31 51.49060 6.72267 28842 ft 463 kts 137°
2026-05-04 06:31 51.46915 6.76119 29248 ft 462 kts 137°
2026-05-04 06:31 51.44777 6.79954 29668 ft 460 kts 137°
2026-05-04 06:32 51.42639 6.83779 30019 ft 460 kts 137°
2026-05-04 06:33 51.26981 7.08574 32283 ft 447 kts 142°
2026-05-04 06:34 51.24736 7.12020 32600 ft 446 kts 141°
2026-05-04 06:34 51.22506 7.15451 32888 ft 444 kts 141°
2026-05-04 06:34 51.18054 7.22294 32977 ft 448 kts 141°
2026-05-04 06:36 51.00278 7.49448 32991 ft 441 kts 142°
2026-05-04 06:37 50.95834 7.56185 32986 ft 441 kts 142°
2026-05-04 06:37 50.91391 7.62905 32989 ft 441 kts 142°
2026-05-04 06:38 50.86939 7.69623 32995 ft 442 kts 142°
2026-05-04 06:40 50.69010 7.96303 33025 ft 445 kts 142°
2026-05-04 06:40 50.64483 8.02991 33015 ft 446 kts 142°
2026-05-04 06:41 50.59969 8.09711 33019 ft 448 kts 139°
2026-05-04 06:41 50.55972 8.17351 33011 ft 453 kts 133°
2026-05-04 06:42 50.52096 8.25181 33008 ft 453 kts 133°
2026-05-04 06:44 50.36329 8.55864 32997 ft 449 kts 136°
2026-05-04 06:44 50.32194 8.62831 33011 ft 447 kts 138°
2026-05-04 06:45 50.27899 8.69867 33006 ft 447 kts 138°
2026-05-04 06:45 50.23622 8.76924 33013 ft 446 kts 138°
2026-05-04 06:46 50.19362 8.83991 33014 ft 446 kts 138°
2026-05-04 06:46 50.15122 8.91026 33012 ft 447 kts 138°
2026-05-04 06:48 49.98021 9.19202 33013 ft 449 kts 138°
2026-05-04 06:50 49.80718 9.47393 33014 ft 452 kts 138°
2026-05-04 06:51 49.76544 9.54147 33026 ft 452 kts 138°
2026-05-04 06:51 49.72190 9.61172 33014 ft 452 kts 138°
2026-05-04 06:52 49.67867 9.68130 33027 ft 452 kts 138°
2026-05-04 06:52 49.63510 9.75122 33028 ft 452 kts 138°
2026-05-04 06:53 49.59148 9.82103 33044 ft 452 kts 138°
2026-05-04 06:53 49.54782 9.89071 33031 ft 452 kts 138°
2026-05-04 06:54 49.50412 9.96026 33047 ft 452 kts 138°
2026-05-04 06:54 49.46037 10.02972 33040 ft 452 kts 138°
2026-05-04 06:55 49.41660 10.09900 33048 ft 452 kts 138°
2026-05-04 06:55 49.37277 10.16820 33050 ft 452 kts 138°
2026-05-04 06:57 49.19630 10.44310 33070 ft 453 kts 140°
2026-05-04 06:58 49.15444 10.50491 33072 ft 454 kts 140°
2026-05-04 06:58 49.10887 10.57212 33069 ft 454 kts 140°
2026-05-04 06:59 49.06369 10.63890 33071 ft 455 kts 140°
2026-05-04 06:59 49.01817 10.70611 33071 ft 455 kts 140°
2026-05-04 07:01 48.83571 10.97378 33049 ft 456 kts 140°
2026-05-04 07:02 48.78989 11.04054 33047 ft 456 kts 140°
2026-05-04 07:02 48.74432 11.10677 33051 ft 456 kts 140°
2026-05-04 07:03 48.69847 11.17326 33049 ft 456 kts 140°
2026-05-04 07:03 48.65306 11.24077 33047 ft 459 kts 134°
2026-05-04 07:04 48.61839 11.32237 33058 ft 464 kts 120°
2026-05-04 07:04 48.58949 11.40894 33051 ft 464 kts 119°
2026-05-04 07:05 48.56022 11.49625 33053 ft 465 kts 120°
2026-05-04 07:05 48.53058 11.58300 33046 ft 464 kts 120°
2026-05-04 07:06 48.49079 11.69817 33050 ft 465 kts 120°
2026-05-04 07:07 48.45587 11.79875 33053 ft 465 kts 120°
2026-05-04 07:09 48.34049 12.12862 33046 ft 465 kts 120°
2026-05-04 07:09 48.31019 12.21455 33044 ft 465 kts 120°
2026-05-04 07:10 48.27980 12.30049 33055 ft 465 kts 120°
2026-05-04 07:12 48.15803 12.64202 33060 ft 464 kts 120°
2026-05-04 07:12 48.12876 12.72821 33059 ft 465 kts 115°
2026-05-04 07:13 48.10456 12.81755 33058 ft 465 kts 112°
2026-05-04 07:13 48.08086 12.90764 33057 ft 465 kts 113°
2026-05-04 07:14 48.01989 13.13107 33053 ft 465 kts 114°
2026-05-04 07:15 47.99521 13.22039 33060 ft 465 kts 114°
2026-05-04 07:15 47.97045 13.30972 33058 ft 464 kts 114°
2026-05-04 07:16 47.94582 13.39837 33045 ft 464 kts 114°
2026-05-04 07:16 47.92054 13.48645 33048 ft 462 kts 119°
2026-05-04 07:17 47.88432 13.56493 33063 ft 458 kts 130°
2026-05-04 07:17 47.84436 13.63883 33051 ft 458 kts 131°
2026-05-04 07:18 47.80440 13.71284 33052 ft 457 kts 130°
2026-05-04 07:18 47.76496 13.78656 33057 ft 457 kts 130°
2026-05-04 07:19 47.72544 13.86063 33054 ft 457 kts 130°
2026-05-04 07:19 47.68584 13.93472 33058 ft 458 kts 130°
2026-05-04 07:20 47.64606 14.00892 33060 ft 459 kts 130°
2026-05-04 07:20 47.60650 14.08251 33054 ft 459 kts 130°
2026-05-04 07:22 47.44649 14.37808 33076 ft 460 kts 130°
2026-05-04 07:23 47.40630 14.45180 33083 ft 460 kts 130°
2026-05-04 07:23 47.36603 14.52549 33091 ft 460 kts 130°
2026-05-04 07:24 47.32577 14.59896 33105 ft 460 kts 130°
2026-05-04 07:24 47.28572 14.67184 33094 ft 459 kts 130°
2026-05-04 07:26 47.12510 14.96223 33100 ft 457 kts 130°
2026-05-04 07:27 47.08484 15.03453 33093 ft 457 kts 130°
2026-05-04 07:27 47.04451 15.10677 33101 ft 457 kts 130°
2026-05-04 07:28 47.00419 15.17881 33094 ft 457 kts 130°
2026-05-04 07:28 46.96402 15.25037 33107 ft 457 kts 130°
2026-05-04 07:29 46.92360 15.32220 33106 ft 457 kts 130°
2026-05-04 07:29 46.88307 15.39406 33096 ft 457 kts 130°
2026-05-04 07:30 46.84253 15.46572 33102 ft 457 kts 130°
2026-05-04 07:30 46.80189 15.53738 33116 ft 457 kts 130°
2026-05-04 07:31 46.76150 15.60841 33102 ft 458 kts 130°
2026-05-04 07:33 46.59826 15.89364 33078 ft 459 kts 130°
2026-05-04 07:33 46.55727 15.96483 33096 ft 459 kts 130°
2026-05-04 07:34 46.51619 16.03597 33097 ft 459 kts 130°
2026-05-04 07:34 46.47510 16.10694 33092 ft 458 kts 130°
2026-05-04 07:35 46.43427 16.17728 33102 ft 458 kts 130°
2026-05-04 07:35 46.39312 16.24805 33109 ft 457 kts 130°
2026-05-04 07:36 46.35484 16.32083 33115 ft 457 kts 124°
2026-05-04 07:38 46.21527 16.62791 33116 ft 458 kts 123°
2026-05-04 07:38 46.17981 16.70441 33127 ft 458 kts 123°
2026-05-04 07:39 46.14416 16.78111 33123 ft 459 kts 123°
2026-05-04 07:39 46.10873 16.85716 33129 ft 460 kts 123°
2026-05-04 07:40 46.07296 16.93375 33133 ft 460 kts 123°
2026-05-04 07:40 46.03713 17.01027 33129 ft 461 kts 123°
2026-05-04 07:41 46.00141 17.08633 33129 ft 461 kts 123°
2026-05-04 07:41 45.96541 17.16278 33128 ft 462 kts 123°
2026-05-04 07:42 45.92928 17.23929 33132 ft 462 kts 123°
2026-05-04 07:42 45.89306 17.31581 33130 ft 462 kts 123°
2026-05-04 07:43 45.85707 17.39163 33134 ft 462 kts 123°
2026-05-04 07:43 45.82076 17.46791 33135 ft 463 kts 123°
2026-05-04 07:44 45.78440 17.54410 33136 ft 463 kts 123°
2026-05-04 07:44 45.74798 17.62020 33136 ft 463 kts 123°
2026-05-04 07:45 45.71169 17.69583 33138 ft 463 kts 123°
2026-05-04 07:45 45.67502 17.77204 33143 ft 463 kts 123°
2026-05-04 07:46 45.63864 17.84746 33144 ft 463 kts 123°
2026-05-04 07:46 45.60194 17.92333 33147 ft 464 kts 123°
2026-05-04 07:47 45.56517 17.99913 33150 ft 464 kts 123°
2026-05-04 07:49 45.41763 18.30132 33154 ft 464 kts 123°
2026-05-04 07:49 45.38078 18.37630 33150 ft 464 kts 123°
2026-05-04 07:50 45.34367 18.45159 33158 ft 464 kts 123°
2026-05-04 07:50 45.30650 18.52684 33154 ft 464 kts 123°
2026-05-04 07:51 45.26957 18.60138 33157 ft 463 kts 123°
2026-05-04 07:51 45.23243 18.67614 33159 ft 463 kts 123°
2026-05-04 07:52 45.19518 18.75095 33160 ft 463 kts 123°
2026-05-04 07:52 45.15816 18.82509 33161 ft 463 kts 122°
2026-05-04 07:54 45.00890 19.12208 33163 ft 463 kts 122°
2026-05-04 07:55 44.97138 19.19627 33165 ft 463 kts 122°
2026-05-04 07:55 44.94018 19.25780 33166 ft 463 kts 122°
2026-05-04 07:56 44.89651 19.34371 33165 ft 463 kts 122°
2026-05-04 07:56 44.86522 19.40509 33159 ft 463 kts 122°
2026-05-04 07:57 44.82753 19.47888 33156 ft 463 kts 122°
2026-05-04 07:57 44.78981 19.55254 33168 ft 463 kts 122°
2026-05-04 07:58 44.75202 19.62612 33167 ft 463 kts 122°
2026-05-04 07:58 44.71452 19.69896 33167 ft 462 kts 122°
2026-05-04 07:59 44.67672 19.77222 33173 ft 462 kts 122°
2026-05-04 07:59 44.63910 19.84493 33173 ft 462 kts 122°
2026-05-04 08:00 44.60130 19.91781 33175 ft 462 kts 122°
2026-05-04 08:02 44.44975 20.20815 33168 ft 461 kts 122°
2026-05-04 08:02 44.41162 20.28074 33175 ft 461 kts 122°
2026-05-04 08:03 44.37519 20.34993 33183 ft 462 kts 122°
2026-05-04 08:03 44.33912 20.41827 33182 ft 462 kts 122°
2026-05-04 08:04 44.30086 20.49059 33177 ft 462 kts 122°
2026-05-04 08:04 44.26277 20.56239 33174 ft 462 kts 122°
2026-05-04 08:05 44.22440 20.63456 33186 ft 462 kts 122°
2026-05-04 08:05 44.18617 20.70629 33191 ft 462 kts 122°
2026-05-04 08:06 44.14760 20.77847 33188 ft 463 kts 122°
2026-05-04 08:06 44.10911 20.85031 33180 ft 463 kts 122°
2026-05-04 08:08 43.95511 21.13603 33187 ft 461 kts 122°
2026-05-04 08:11 43.78205 21.45382 33188 ft 458 kts 122°
2026-05-04 08:11 43.72427 21.55921 33187 ft 457 kts 122°
2026-05-04 08:12 43.68569 21.62934 33186 ft 457 kts 123°
2026-05-04 08:12 43.64593 21.69739 33186 ft 458 kts 125°
2026-05-04 08:13 43.60480 21.76493 33192 ft 458 kts 125°
2026-05-04 08:13 43.56374 21.83253 33192 ft 458 kts 124°
2026-05-04 08:14 43.52294 21.90006 33202 ft 458 kts 124°
2026-05-04 08:16 43.35960 22.16969 33209 ft 461 kts 124°
2026-05-04 08:16 43.31833 22.23739 33200 ft 461 kts 124°
2026-05-04 08:17 43.27728 22.30458 33182 ft 462 kts 125°
2026-05-04 08:17 43.23590 22.37216 33176 ft 462 kts 125°
2026-05-04 08:19 43.06959 22.64222 33163 ft 463 kts 125°
2026-05-04 08:20 43.02822 22.70902 33163 ft 462 kts 126°
2026-05-04 08:20 42.98664 22.77602 33160 ft 461 kts 126°
2026-05-04 08:21 42.94253 22.83976 33165 ft 462 kts 132°
2026-05-04 08:21 42.89530 22.89914 33158 ft 460 kts 133°
2026-05-04 08:22 42.84847 22.95763 33161 ft 458 kts 133°
2026-05-04 08:24 42.66273 23.19326 33193 ft 456 kts 133°
2026-05-04 08:24 42.61625 23.25201 33178 ft 455 kts 133°
2026-05-04 08:25 42.57013 23.31017 33183 ft 455 kts 133°
2026-05-04 08:25 42.52369 23.36862 33175 ft 455 kts 134°
2026-05-04 08:27 42.33858 23.60041 33161 ft 451 kts 134°
2026-05-04 08:28 42.29238 23.65789 33153 ft 451 kts 134°
2026-05-04 08:28 42.24614 23.71425 33141 ft 450 kts 135°
2026-05-04 08:29 42.19950 23.77069 33140 ft 450 kts 135°
2026-05-04 08:31 42.01403 23.99488 33136 ft 447 kts 135°
2026-05-04 08:33 41.82918 24.21683 33125 ft 445 kts 135°
2026-05-04 08:35 41.64433 24.43712 33126 ft 445 kts 136°
2026-05-04 08:35 41.59795 24.49213 33119 ft 445 kts 136°
2026-05-04 08:37 41.43675 24.68245 33115 ft 440 kts 136°
2026-05-04 08:38 41.39096 24.73643 33115 ft 438 kts 136°
2026-05-04 08:38 41.34546 24.79035 33109 ft 437 kts 136°
2026-05-04 08:40 41.16496 25.00318 33118 ft 432 kts 136°
2026-05-04 08:41 41.11980 25.05616 33117 ft 432 kts 136°
2026-05-04 08:41 41.07500 25.10862 33123 ft 431 kts 136°
2026-05-04 08:42 41.02981 25.16143 33123 ft 431 kts 136°
2026-05-04 08:42 40.98507 25.21363 33125 ft 432 kts 136°
2026-05-04 08:43 40.93997 25.26617 33118 ft 432 kts 136°
2026-05-04 08:43 40.89472 25.31875 33121 ft 432 kts 136°
2026-05-04 08:44 40.84977 25.37091 33124 ft 431 kts 136°
2026-05-04 08:46 40.69274 25.58922 33120 ft 427 kts 128°
2026-05-04 08:46 40.65404 25.64872 33121 ft 427 kts 128°
2026-05-04 08:47 40.61513 25.70805 33122 ft 427 kts 128°
2026-05-04 08:47 40.57628 25.76717 33116 ft 426 kts 128°
2026-05-04 08:48 40.53767 25.82584 33119 ft 426 kts 128°
2026-05-04 08:48 40.49881 25.88476 33129 ft 426 kts 129°
2026-05-04 08:49 40.45975 25.94339 33134 ft 426 kts 129°
2026-05-04 08:50 40.32279 26.14749 33138 ft 426 kts 129°
2026-05-04 08:51 40.28372 26.20553 33124 ft 427 kts 129°
2026-05-04 08:51 40.24438 26.26386 33127 ft 427 kts 129°
2026-05-04 08:52 40.20496 26.32221 33133 ft 428 kts 129°
2026-05-04 08:52 40.16571 26.38022 33128 ft 429 kts 129°
2026-05-04 08:54 39.99687 26.60285 33116 ft 433 kts 133°
2026-05-04 08:55 39.95375 26.65791 33109 ft 433 kts 133°
2026-05-04 08:55 39.91100 26.71248 33096 ft 432 kts 133°
2026-05-04 09:01 39.45902 27.28425 33082 ft 433 kts 126°
2026-05-04 09:01 39.42116 27.34506 33072 ft 434 kts 126°
2026-05-04 09:02 39.38297 27.40570 33063 ft 435 kts 126°
2026-05-04 09:02 39.34462 27.46581 33050 ft 436 kts 127°
2026-05-04 09:03 39.30593 27.52612 33061 ft 436 kts 127°
2026-05-04 09:03 39.26713 27.58647 33043 ft 436 kts 127°
2026-05-04 09:04 39.22865 27.64622 33053 ft 435 kts 127°
2026-05-04 09:04 39.18979 27.70647 33033 ft 435 kts 127°
2026-05-04 09:05 39.15102 27.76649 33038 ft 435 kts 127°
2026-05-04 09:05 39.11249 27.82604 33039 ft 435 kts 127°
2026-05-04 09:06 39.07358 27.88601 33034 ft 436 kts 127°
2026-05-04 09:08 38.91693 28.12585 33016 ft 440 kts 127°
2026-05-04 09:08 38.87740 28.18612 33016 ft 441 kts 127°
2026-05-04 09:09 38.83773 28.24649 33016 ft 442 kts 128°
2026-05-04 09:09 38.79823 28.30648 33008 ft 443 kts 128°
2026-05-04 09:10 38.75841 28.36685 33008 ft 443 kts 128°
2026-05-04 09:10 38.71850 28.42725 33005 ft 444 kts 128°
2026-05-04 09:11 38.67845 28.48773 32995 ft 444 kts 128°
2026-05-04 09:11 38.63870 28.54768 32984 ft 445 kts 128°
2026-05-04 09:12 38.59851 28.60810 32991 ft 445 kts 129°
2026-05-04 09:14 38.38928 28.78343 32971 ft 454 kts 147°
2026-05-04 09:14 38.33553 28.82515 32981 ft 454 kts 147°
2026-05-04 09:15 38.28148 28.86714 32978 ft 455 kts 147°
2026-05-04 09:15 38.22717 28.90926 32964 ft 457 kts 147°
2026-05-04 09:17 37.98161 29.09868 32961 ft 460 kts 147°
2026-05-04 09:18 37.92703 29.14057 32958 ft 461 kts 147°
2026-05-04 09:18 37.87208 29.18268 32959 ft 461 kts 147°
2026-05-04 09:19 37.81713 29.22471 32958 ft 461 kts 148°
2026-05-04 09:19 37.76248 29.26644 32962 ft 462 kts 148°
2026-05-04 09:20 37.70740 29.30843 32961 ft 463 kts 148°
2026-05-04 09:20 37.65205 29.35054 32953 ft 464 kts 148°
2026-05-04 09:21 37.59671 29.39258 32954 ft 464 kts 148°
2026-05-04 09:21 37.54162 29.43435 32952 ft 465 kts 148°
2026-05-04 09:22 37.48611 29.47636 32946 ft 466 kts 148°
2026-05-04 09:22 37.43046 29.51841 32944 ft 467 kts 148°
2026-05-04 09:23 37.37469 29.56047 32935 ft 467 kts 148°
2026-05-04 09:23 37.31914 29.60229 32939 ft 468 kts 148°
2026-05-04 09:25 37.09494 29.77036 32929 ft 470 kts 148°
2026-05-04 09:26 37.03870 29.81234 32925 ft 470 kts 149°
2026-05-04 09:26 36.98280 29.85399 32927 ft 470 kts 149°
2026-05-04 09:27 36.92650 29.89586 32920 ft 470 kts 149°
2026-05-04 09:27 36.87024 29.93763 32923 ft 470 kts 149°
2026-05-04 09:28 36.81396 29.97935 32917 ft 469 kts 149°
2026-05-04 09:28 36.75809 30.02069 32913 ft 468 kts 150°
2026-05-04 09:29 36.70194 30.06216 32901 ft 468 kts 150°
2026-05-04 09:29 36.64596 30.10344 32898 ft 467 kts 150°
2026-05-04 09:30 36.59010 30.14456 32889 ft 467 kts 150°
2026-05-04 09:30 36.53410 30.18571 32875 ft 466 kts 150°
2026-05-04 09:31 36.47822 30.22671 32879 ft 466 kts 150°
2026-05-04 09:31 36.42268 30.26738 32881 ft 466 kts 151°
2026-05-04 09:32 36.37602 30.30151 32875 ft 467 kts 151°
2026-05-04 09:34 36.15048 30.46576 32877 ft 471 kts 152°
2026-05-04 09:34 36.09411 30.50664 32879 ft 472 kts 152°
2026-05-04 09:35 36.03735 30.54774 32878 ft 472 kts 152°
2026-05-04 09:35 35.98052 30.58882 32882 ft 472 kts 152°
2026-05-04 09:37 35.75388 30.75196 32879 ft 472 kts 153°
2026-05-04 09:38 35.69714 30.79266 32885 ft 472 kts 153°
2026-05-04 09:38 35.64153 30.83588 32868 ft 476 kts 140°
2026-05-04 09:39 35.61917 30.86620 32905 ft 479 kts 126°
2026-05-04 09:39 35.60288 30.90130 32879 ft 480 kts 112°
2026-05-04 09:39 35.58281 30.97954 32885 ft 480 kts 106°
2026-05-04 09:40 35.56418 31.05751 32874 ft 469 kts 106°
2026-05-04 09:40 35.54535 31.13388 32890 ft 466 kts 107°
2026-05-04 09:41 35.53590 31.17147 32649 ft 467 kts 107°
2026-05-04 09:42 35.46979 31.43048 29935 ft 444 kts 107°
2026-05-04 09:43 35.46053 31.46657 29466 ft 441 kts 107°
2026-05-04 09:43 35.45135 31.50231 29029 ft 438 kts 107°
2026-05-04 09:43 35.44221 31.53785 28630 ft 434 kts 107°
2026-05-04 09:43 35.43316 31.57299 28212 ft 430 kts 107°
2026-05-04 09:44 35.42418 31.60783 27823 ft 427 kts 107°
2026-05-04 09:44 35.41535 31.64204 27419 ft 424 kts 107°
2026-05-04 09:44 35.40647 31.67636 27031 ft 421 kts 107°
2026-05-04 09:46 35.34540 31.91134 24275 ft 411 kts 106°
2026-05-04 09:46 35.33680 31.94430 23879 ft 410 kts 106°
2026-05-04 09:46 35.32812 31.97748 23533 ft 408 kts 106°
2026-05-04 09:47 35.31947 32.01048 23144 ft 406 kts 106°
2026-05-04 09:47 35.31089 32.04322 22738 ft 403 kts 106°
2026-05-04 09:49 35.25171 32.26784 20080 ft 388 kts 107°
2026-05-04 09:49 35.24339 32.29926 19721 ft 387 kts 107°
2026-05-04 09:49 35.23511 32.33048 19365 ft 385 kts 107°
2026-05-04 09:51 35.18618 32.51435 17242 ft 374 kts 107°
2026-05-04 09:51 35.17812 32.54450 16891 ft 372 kts 107°
2026-05-04 09:51 35.17009 32.57453 16530 ft 370 kts 107°
2026-05-04 09:51 35.16219 32.60404 16204 ft 368 kts 107°
2026-05-04 09:52 35.15423 32.63371 15868 ft 366 kts 106°
2026-05-04 09:52 35.14628 32.66333 15512 ft 366 kts 107°
2026-05-04 09:52 35.13836 32.69284 15197 ft 363 kts 107°
2026-05-04 09:52 35.13045 32.72221 14734 ft 363 kts 107°
2026-05-04 09:53 35.12256 32.75147 14428 ft 361 kts 107°
2026-05-04 09:53 35.11485 32.78010 14107 ft 358 kts 107°
2026-05-04 09:53 35.10708 32.80898 13768 ft 357 kts 107°
2026-05-04 09:53 35.09931 32.83776 13434 ft 356 kts 107°
2026-05-04 09:54 35.09162 32.86624 13163 ft 351 kts 107°
2026-05-04 09:54 35.08396 32.89453 12870 ft 348 kts 108°
2026-05-04 09:54 35.07636 32.92259 12558 ft 346 kts 108°
2026-05-04 09:54 35.06874 32.95032 12272 ft 343 kts 109°
2026-05-04 09:55 35.06100 32.97739 11990 ft 341 kts 109°
2026-05-04 09:55 35.05313 33.00459 11657 ft 339 kts 110°
2026-05-04 09:55 35.04530 33.03163 11394 ft 335 kts 110°
2026-05-04 09:55 35.03768 33.05805 11323 ft 325 kts 110°
2026-05-04 09:56 35.03031 33.08367 11183 ft 317 kts 110°
2026-05-04 09:56 35.02303 33.10892 10958 ft 314 kts 110°
2026-05-04 09:56 35.01580 33.13397 10675 ft 313 kts 111°
2026-05-04 09:56 35.00859 33.15895 10401 ft 311 kts 111°
2026-05-04 09:57 35.00144 33.18375 10168 ft 308 kts 111°
2026-05-04 09:57 34.99434 33.20832 9927 ft 305 kts 111°
2026-05-04 09:57 34.98729 33.23273 9673 ft 304 kts 111°
2026-05-04 09:57 34.98034 33.25675 9373 ft 303 kts 111°
2026-05-04 09:58 34.97335 33.28090 9092 ft 301 kts 111°
2026-05-04 09:58 34.96637 33.30497 8803 ft 300 kts 112°
2026-05-04 09:58 34.96144 33.32958 8495 ft 301 kts 92°
2026-05-04 10:00 34.96531 33.49631 6660 ft 281 kts 86°
2026-05-04 10:00 34.96667 33.52031 5902 ft 287 kts 85°
2026-05-04 10:02 34.98545 33.68155 1687 ft 256 kts 86°
2026-05-04 10:04 34.92790 33.69021 1203 ft 128 kts 227°
2026-05-04 10:04 34.92158 33.68271 1055 ft 127 kts 228°
2026-05-04 10:04 34.91537 33.67514 893 ft 125 kts 230°
2026-05-04 10:04 34.90928 33.66765 749 ft 125 kts 230°
2026-05-04 10:05 34.90300 33.65993 599 ft 130 kts 229°
2026-05-04 10:05 34.89666 33.65215 419 ft 129 kts 229°
2026-05-04 10:05 34.89038 33.64445 258 ft 129 kts 228°
2026-05-04 10:05 34.88404 33.63657 109 ft 130 kts 229°
2026-05-04 10:06 34.87795 33.62923 29 ft 111 kts 229°
2026-05-04 10:06 34.87329 33.62331 20 ft 80 kts 225°
2026-05-04 10:06 34.87032 33.61969 21 ft 41 kts 232°
2026-05-04 10:08 34.86702 33.60998 20 ft 16 kts 316°
2026-05-04 10:08 34.86779 33.60908 24 ft 14 kts 316°
2026-05-04 10:08 34.86838 33.60836 19 ft 8 kts 314°
2026-05-04 10:08 34.86865 33.60843 19 ft 4 kts 47°
2026-05-04 10:09 34.86892 33.60876 21 ft 7 kts 46°
2026-05-04 10:09 34.86906 33.60894 19 ft 0 kts 46°